CW0506 Weather Reports


time (UTC)temp
F
wind
direction
speed
knots
gust
knots
rain 1hr
in
rain 24hr
in
rain mn
in
humidity
%
barometer
mb
20260510203001 66 26 0.9 4.3 0.00 0.00 0.00 64 1013.5
20260510202456 66 28 0.9 4.3 0.00 0.00 0.00 60 1013.3
20260510201953 67 123 1.7 7.8 0.00 0.00 0.00 59 1013.4
20260510201450 67 55 2.6 10.4 0.00 0.00 0.00 58 1013.1
20260510200947 68 6 8.7 13.0 0.00 0.00 0.00 56 1013.1
20260510200442 68 284 1.7 12.2 0.00 0.00 0.00 59 1013.1
20260510195935 69 329 7.0 10.4 0.00 0.00 0.00 62 1012.9
20260510195433 70 314 3.5 7.0 0.00 0.00 0.00 60 1012.7
20260510194928 70 291 2.6 6.1 0.00 0.00 0.00 62 1012.9
20260510194424 71 340 2.6 6.1 0.00 0.00 0.00 61 1012.9
20260510193920 71 26 2.6 5.2 0.00 0.00 0.00 61 1012.8
20260510193415 71 214 2.6 5.2 0.00 0.00 0.00 63 1013.0
20260510192912 71 331 1.7 3.5 0.00 0.00 0.00 65 1012.9
20260510192406 72 305 3.5 7.0 0.00 0.00 0.00 60 1012.9
20260510191902 72 302 4.3 7.8 0.00 0.00 0.00 57 1012.8
20260510191358 72 295 1.7 8.7 0.00 0.00 0.00 62 1012.8
20260510190856 72 356 2.6 6.1 0.00 0.00 0.00 56 1012.9
20260510190353 71 17 2.6 5.2 0.00 0.00 0.00 58 1013.0
20260510185849 71 279 2.6 7.8 0.00 0.00 0.00 58 1012.9
20260510185348 71 352 0.0 4.3 0.00 0.00 0.00 61 1013.0
20260510184844 71 273 1.7 4.3 0.00 0.00 0.00 60 1013.2
20260510184342 71 264 2.6 3.5 0.00 0.00 0.00 58 1013.0
20260510183841 72 312 2.6 11.3 0.00 0.00 0.00 58 1013.1
20260510183337 71 165 0.0 5.2 0.00 0.00 0.00 62 1013.2
20260510182833 73 321 3.5 7.8 0.00 0.00 0.00 61 1013.0
20260510182330 72 289 9.6 9.6 0.00 0.00 0.00 64 1013.1
20260510181825 70 270 3.5 5.2 0.00 0.00 0.00 66 1013.1
20260510181323 70 16 2.6 8.7 0.00 0.00 0.00 64 1013.1
20260510180819 72 239 2.6 5.2 0.00 0.00 0.00 65 1013.1
20260510180316 70 344 1.7 4.3 0.00 0.00 0.00 62 1013.1
20260510175813 69 279 0.9 4.3 0.00 0.00 0.00 67 1013.0
20260510175309 70 253 3.5 6.1 0.00 0.00 0.00 64 1013.1
20260510174806 71 350 2.6 6.1 0.00 0.00 0.00 65 1013.3
20260510174303 71 234 4.3 6.1 0.00 0.00 0.00 67 1013.1
20260510173759 70 49 0.0 2.6 0.00 0.00 0.00 69 1013.2
20260510173255 68 92 0.0 3.5 0.00 0.00 0.00 72 1013.0
20260510172751 68 345 0.9 4.3 0.00 0.00 0.00 72 1013.1
20260510172247 68 312 2.6 3.5 0.00 0.00 0.00 71 1013.2
20260510171744 68 267 2.6 4.3 0.00 0.00 0.00 71 1013.2
20260510171241 68 85 2.6 7.8 0.00 0.00 0.00 72 1013.4
20260510170738 68 294 4.3 8.7 0.00 0.00 0.00 72 1013.4
20260510170234 69 335 3.5 6.1 0.00 0.00 0.00 71 1013.3
20260510165730 68 277 3.5 9.6 0.00 0.00 0.00 73 1013.3
20260510165226 68 348 1.7 4.3 0.00 0.00 0.00 71 1013.4
20260510164724 68 1 4.3 9.6 0.00 0.00 0.00 72 1013.5
20260510164221 68 309 1.7 4.3 0.00 0.00 0.00 74 1013.6
20260510163716 68 253 1.7 7.0 0.00 0.00 0.00 75 1013.5
20260510163212 67 245 4.3 5.2 0.00 0.00 0.00 75 1013.5
20260510162711 67 2 1.7 5.2 0.00 0.00 0.00 74 1013.8
20260510162209 67 285 3.5 8.7 0.00 0.00 0.00 73 1013.8
20260510161704 66 300 2.6 5.2 0.00 0.00 0.00 77 1013.8
20260510161201 67 330 2.6 7.0 0.00 0.00 0.00 74 1013.8
20260510160658 66 336 0.0 4.3 0.00 0.00 0.00 79 1013.7
20260510160153 67 311 1.7 4.3 0.00 0.00 0.00 76 1013.6
20260510155649 66 314 0.0 6.1 0.00 0.00 0.00 75 1013.8
20260510155145 67 305 4.3 6.1 0.00 0.00 0.00 72 1014.0
20260510154641 66 279 5.2 5.2 0.00 0.00 0.00 75 1013.8
20260510154137 66 305 1.7 7.0 0.00 0.00 0.00 76 1014.0
20260510153632 67 226 3.5 8.7 0.00 0.00 0.00 75 1014.1
20260510153129 67 269 2.6 5.2 0.00 0.00 0.00 76 1014.2
20260510152626 66 305 2.6 6.1 0.00 0.00 0.00 76 1014.1
20260510152122 65 69 0.9 7.8 0.00 0.00 0.00 77 1014.2
20260510151618 66 304 1.7 3.5 0.00 0.00 0.00 81 1014.3
20260510151117 64 340 0.0 5.2 0.00 0.00 0.00 78 1014.1
20260510150617 64 299 3.5 6.1 0.00 0.00 0.00 80 1014.2
20260510150113 63 218 2.6 4.3 0.00 0.00 0.00 84 1014.4
20260510145609 61 162 1.7 2.6 0.00 0.00 0.00 87 1014.1
20260510145106 62 286 2.6 6.1 0.00 0.00 0.00 84 1014.2
20260510144602 60 304 3.5 6.1 0.00 0.00 0.00 86 1014.1
20260510144058 61 249 3.5 4.3 0.00 0.00 0.00 87 1014.0
20260510143554 61 312 2.6 4.3 0.00 0.00 0.00 87 1014.0
20260510143050 60 150 2.6 3.5 0.00 0.00 0.00 87 1014.2
20260510142547 58 340 2.6 7.0 0.00 0.00 0.00 88 1014.3
20260510142044 58 290 2.6 6.1 0.00 0.00 0.00 89 1014.3
20260510141540 58 255 7.0 7.0 0.00 0.00 0.00 89 1014.4
20260510141038 58 270 4.3 7.0 0.00 0.00 0.00 89 1014.4
20260510140534 57 17 0.0 4.3 0.00 0.00 0.00 91 1014.4
20260510140034 59 321 2.6 2.6 0.00 0.00 0.00 89 1014.5
20260510135530 59 160 1.7 2.6 0.00 0.00 0.00 92 1014.4
20260510135026 56 38 0.9 3.5 0.00 0.00 0.00 94 1014.2
20260510134524 56 312 2.6 3.5 0.00 0.00 0.00 92 1014.1
20260510134020 55 184 0.0 1.7 0.00 0.00 0.00 96 1014.1
20260510133516 54 254 1.7 2.6 0.00 0.00 0.00 96 1014.2
20260510133013 55 199 0.9 3.5 0.00 0.00 0.00 96 1014.2
20260510132509 54 208 0.0 4.3 0.00 0.00 0.00 97 1014.3
20260510132006 54 217 0.0 0.9 0.00 0.00 0.00 97 1014.4
20260510131504 55 55 0.0 1.7 0.00 0.00 0.00 97 1014.3
20260510131001 54 70 0.9 1.7 0.00 0.00 0.00 97 1014.5
20260510130457 54 115 0.9 2.6 0.00 0.00 0.00 97 1014.4
20260510125954 55 282 0.0 1.7 0.00 0.00 0.00 97 1014.3
20260510125451 54 301 0.0 2.6 0.00 0.00 0.00 96 1014.2
20260510124947 54 296 0.0 1.7 0.00 0.00 0.00 97 1014.1
20260510124443 53 311 0.9 1.7 0.00 0.00 0.00 97 1014.2
20260510123941 53 20 0.9 1.7 0.00 0.00 0.00 99 1014.0
20260510123436 52 242 0.9 1.7 0.00 0.00 0.00 99 1014.1
20260510122932 53 289 0.9 2.6 0.00 0.00 0.00 99 1014.0
20260510122433 52 247 0.9 2.6 0.00 0.00 0.00 99 1013.9
20260510121929 52 320 1.7 1.7 0.00 0.00 0.00 99 1014.1
20260510121427 52 324 0.0 2.6 0.00 0.00 0.00 99 1014.1
20260510120924 52 304 0.0 0.9 0.00 0.00 0.00 99 1014.0
20260510120421 52 273 1.7 1.7 0.00 0.00 0.00 99 1014.0
20260510115917 53 132 0.0 0.9 0.00 0.00 0.00 99 1013.9
20260510115414 51 264 0.0 0.9 0.00 0.00 0.00 99 1014.1
20260510114910 52 247 0.0 0.9 0.00 0.00 0.00 99 1014.2
20260510114407 51 330 0.0 0.9 0.00 0.00 0.00 99 1014.0
20260510113902 52 17 0.0 0.9 0.00 0.00 0.00 99 1013.9
20260510113358 52 217 0.0 0.9 0.00 0.00 0.00 99 1013.8
20260510112855 52 125 0.0 0.9 0.00 0.00 0.00 99 1013.7
20260510112353 52 164 0.0 1.7 0.00 0.00 0.00 99 1013.6
20260510111848 51 214 0.9 1.7 0.00 0.00 0.00 99 1013.6
20260510111345 52 90 0.0 1.7 0.00 0.00 0.00 99 1013.7
20260510110840 51 189 0.0 0.0 0.00 0.00 0.00 99 1013.5
20260510110338 51 152 0.0 1.7 0.00 0.00 0.00 99 1013.4
20260510105834 51 242 0.0 1.7 0.00 0.00 0.00 99 1013.6
20260510105333 51 129 0.0 0.9 0.00 0.00 0.00 99 1013.6
20260510104830 51 137 0.0 0.9 0.00 0.00 0.00 99 1013.5
20260510104327 51 153 0.0 1.7 0.00 0.00 0.00 99 1013.4
20260510103823 51 156 0.0 1.7 0.00 0.00 0.00 99 1013.4
20260510103320 51 237 0.9 1.7 0.00 0.00 0.00 99 1013.3
20260510102816 51 242 0.0 0.9 0.00 0.00 0.00 99 1013.3
20260510102312 51 15 0.9 3.5 0.00 0.00 0.00 99 1013.3
20260510101809 51 249 0.0 1.7 0.00 0.00 0.00 99 1013.5
20260510101307 51 33 0.0 2.6 0.00 0.00 0.00 99 1013.4
20260510100803 51 247 0.0 2.6 0.00 0.00 0.00 99 1013.1
20260510100301 51 156 0.0 2.6 0.00 0.00 0.00 99 1013.0
20260510095756 51 258 0.0 0.9 0.00 0.00 0.00 99 1012.8
20260510095251 51 28 1.7 2.6 0.00 0.00 0.00 99 1013.0
20260510094750 51 186 1.7 2.6 0.00 0.00 0.00 99 1012.9
20260510094246 51 208 0.9 1.7 0.00 0.00 0.00 99 1013.2
20260510093742 51 20 1.7 2.6 0.00 0.00 0.00 99 1013.3
20260510093240 51 224 0.0 1.7 0.00 0.00 0.00 99 1013.0
20260510092735 51 166 0.9 1.7 0.00 0.00 0.00 99 1013.1
20260510092231 51 242 0.0 1.7 0.00 0.00 0.00 99 1013.4
20260510091727 51 33 0.0 1.7 0.00 0.00 0.00 99 1013.1
20260510091224 51 18 1.7 2.6 0.00 0.00 0.00 99 1013.2
20260510090720 51 212 1.7 2.6 0.00 0.00 0.00 99 1013.1
20260510090218 51 98 0.0 1.7 0.00 0.00 0.00 99 1013.2
20260510085712 51 180 0.9 1.7 0.00 0.00 0.00 99 1013.3
20260510085207 51 189 0.0 2.6 0.00 0.00 0.00 99 1013.3
20260510084704 51 193 0.9 1.7 0.00 0.00 0.00 99 1013.4
20260510084201 51 288 0.0 1.7 0.00 0.00 0.00 99 1013.7
20260510083658 51 222 0.0 0.9 0.00 0.00 0.00 99 1013.5
20260510083154 51 9 0.0 1.7 0.00 0.00 0.00 99 1013.4
20260510082645 51 330 0.0 0.9 0.00 0.00 0.00 99 1013.3
20260510082141 51 153 0.9 1.7 0.00 0.00 0.00 99 1013.2
20260510081635 51 122 0.9 1.7 0.00 0.00 0.00 99 1013.2
20260510081132 51 242 0.0 0.9 0.00 0.00 0.00 99 1013.3
20260510080630 51 96 1.7 2.6 0.00 0.00 0.00 99 1013.3
20260510080127 52 62 0.0 0.0 0.00 0.00 0.00 99 1013.1
20260510075625 52 9 0.0 1.7 0.00 0.00 0.00 99 1013.3
20260510075122 52 49 0.0 1.7 0.00 0.00 0.00 99 1013.1
20260510074619 52 158 0.0 0.9 0.00 0.00 0.00 99 1013.3
20260510074114 52 26 0.0 0.9 0.00 0.00 0.00 99 1013.2
20260510073610 52 165 0.9 0.9 0.00 0.00 0.00 99 1012.9
20260510073108 52 144 0.0 1.7 0.00 0.00 0.00 99 1013.1
20260510072604 52 158 0.9 1.7 0.00 0.00 0.00 99 1013.0
20260510072100 52 344 0.0 0.9 0.00 0.00 0.00 99 1012.9
20260510071556 52 203 0.9 1.7 0.00 0.00 0.00 99 1013.0
20260510071055 52 150 0.0 0.9 0.00 0.00 0.00 99 1012.9
20260510070551 52 137 0.0 0.9 0.00 0.00 0.00 99 1013.0
20260510070048 52 150 0.0 0.9 0.00 0.00 0.00 99 1012.9
20260510065544 52 175 0.0 0.0 0.00 0.00 0.00 99 1013.1
20260510065041 52 175 0.0 0.0 0.00 0.00 0.00 99 1013.0
20260510064537 52 242 0.0 0.9 0.00 0.00 0.00 99 1013.2
20260510064034 52 218 0.0 0.9 0.00 0.00 0.00 99 1013.0
20260510063531 52 324 0.0 0.0 0.00 0.00 0.00 99 1013.1
20260510063028 52 324 0.0 0.9 0.00 0.00 0.00 99 1012.9
20260510062524 52 55 0.0 0.9 0.00 0.00 0.00 99 1012.8
20260510062019 52 162 0.0 0.0 0.00 0.00 0.00 99 1012.6
20260510061516 52 142 0.0 0.9 0.00 0.00 0.00 99 1012.6
20260510061012 52 137 0.0 0.0 0.00 0.00 0.00 99 1012.7
20260510060509 52 137 0.0 0.0 0.00 0.00 0.00 99 1012.4
20260510060006 52 137 0.0 0.9 0.00 0.00 0.00 99 1012.6
20260510055501 52 273 0.0 0.0 0.00 0.00 0.00 99 1012.9
20260510054959 52 217 0.0 0.9 0.00 0.00 0.00 99 1012.7
20260510054454 52 150 0.0 0.0 0.00 0.00 0.00 99 1012.6
20260510053950 52 150 0.0 0.9 0.00 0.00 0.00 99 1012.9
20260510053445 52 264 0.0 0.9 0.00 0.00 0.00 99 1012.8
20260510052942 52 254 0.0 0.0 0.00 0.00 0.00 99 1012.8
20260510052438 52 305 0.0 0.9 0.00 0.00 0.00 99 1012.7
20260510051934 52 162 0.0 0.0 0.00 0.00 0.00 99 1012.5
20260510051430 52 162 0.0 0.0 0.00 0.00 0.00 99 1012.8
20260510050927 52 162 0.0 0.0 0.00 0.00 0.00 99 1012.9
20260510050424 52 132 0.0 0.0 0.00 0.00 0.00 99 1012.8
20260510045921 52 132 0.0 0.9 0.00 0.00 0.00 99 1012.9
20260510045418 52 137 0.0 0.9 0.00 0.00 0.00 99 1013.0
20260510044915 52 115 0.0 0.0 0.00 0.00 0.00 99 1012.8
20260510044412 52 115 0.0 0.0 0.00 0.00 0.00 99 1012.9
20260510043908 52 115 0.0 0.0 0.00 0.00 0.00 99 1012.9
20260510043404 52 91 0.0 0.9 0.00 0.00 0.00 99 1012.6
20260510042903 52 254 0.0 0.0 0.00 0.00 0.00 99 1013.0
20260510042358 52 262 0.0 0.9 0.00 0.00 0.00 99 1012.8
20260510041854 52 189 0.0 0.9 0.00 0.00 0.00 99 1012.6
20260510041352 52 165 0.0 0.9 0.00 0.00 0.00 99 1012.7
20260510040849 52 150 0.0 0.9 0.00 0.00 0.00 99 1012.6
20260510040346 52 150 0.0 0.9 0.00 0.00 0.00 99 1012.7
20260510035841 52 144 0.0 0.0 0.00 0.50 0.50 99 1012.7
20260510035337 52 137 0.0 0.9 0.00 0.50 0.50 99 1012.8
20260510034833 53 235 0.0 1.7 0.00 0.50 0.50 99 1012.9
20260510034331 53 87 0.0 0.9 0.00 0.50 0.50 99 1012.9
20260510033827 53 247 0.0 1.7 0.00 0.50 0.50 99 1012.8
20260510033324 53 264 0.0 0.9 0.00 0.50 0.50 99 1012.9
20260510032821 53 242 0.0 1.7 0.00 0.50 0.50 99 1012.8
20260510032318 53 227 1.7 2.6 0.00 0.50 0.50 99 1012.7
20260510031813 53 335 0.0 2.6 0.00 0.50 0.50 99 1012.7
20260510031309 53 0 1.7 3.5 0.00 0.50 0.50 99 1012.9
20260510030803 53 39 0.0 1.7 0.00 0.50 0.50 99 1013.0
20260510030300 53 277 0.0 2.6 0.00 0.50 0.50 99 1013.0
20260510025757 53 59 0.0 1.7 0.00 0.50 0.50 99 1012.9
20260510025255 53 307 0.0 1.7 0.00 0.50 0.50 99 1012.8
20260510024751 53 335 0.0 1.7 0.00 0.50 0.50 99 1012.7
20260510024248 53 250 1.7 4.3 0.00 0.50 0.50 99 1012.5
20260510023743 53 304 1.7 5.2 0.00 0.50 0.50 99 1012.3
20260510023235 53 319 1.7 2.6 0.00 0.50 0.50 99 1012.7
20260510022731 53 162 0.0 0.9 0.00 0.50 0.50 99 1012.6
20260510022226 53 270 0.0 1.7 0.00 0.50 0.50 99 1012.6
20260510021721 53 324 0.0 1.7 0.00 0.50 0.50 99 1012.8
20260510021219 53 236 0.9 1.7 0.00 0.50 0.50 99 1012.7
20260510020714 53 238 0.0 1.7 0.00 0.50 0.50 99 1012.7
20260510020209 53 144 0.0 0.9 0.00 0.50 0.50 99 1012.8
20260510015704 53 125 0.0 1.7 0.00 0.50 0.50 99 1012.9
20260510015201 53 61 0.0 1.7 0.00 0.50 0.50 99 1013.0
20260510014655 53 83 0.0 0.9 0.00 0.50 0.50 99 1012.8
20260510014153 53 267 0.9 1.7 0.00 0.50 0.50 99 1012.8
20260510013648 53 240 2.6 3.5 0.00 0.50 0.50 99 1013.0
20260510013144 53 262 0.0 3.5 0.00 0.50 0.50 99 1013.0
20260510012644 53 107 2.6 3.5 0.00 0.50 0.50 99 1012.8
20260510012140 53 132 1.7 2.6 0.00 0.50 0.50 99 1012.8
20260510011635 53 133 0.0 1.7 0.00 0.50 0.50 99 1012.6
20260510011131 53 59 0.9 1.7 0.00 0.50 0.50 99 1012.7
20260510010627 53 76 0.0 1.7 0.00 0.50 0.50 99 1012.3
20260510010125 53 113 0.9 1.7 0.00 0.50 0.50 99 1012.3
20260510005620 53 66 0.0 0.0 0.00 0.50 0.50 99 1012.4
20260510005117 53 155 0.0 0.0 0.00 0.50 0.50 99 1012.3
20260510004615 53 155 0.0 0.9 0.00 0.50 0.50 99 1012.4
20260510004113 53 128 0.9 0.9 0.00 0.50 0.50 99 1012.2
20260510003610 53 160 0.0 0.9 0.00 0.50 0.50 99 1012.4
20260510003106 53 119 0.0 1.7 0.00 0.50 0.50 99 1012.3
20260510002600 53 115 0.0 0.9 0.00 0.50 0.50 99 1012.2
20260510002057 53 98 0.9 0.9 0.00 0.50 0.50 99 1012.0
20260510001554 53 139 0.9 1.7 0.00 0.50 0.50 99 1012.0
20260510001053 53 36 0.9 1.7 0.00 0.50 0.50 99 1012.2
20260510000548 53 66 1.7 1.7 0.00 0.50 0.50 99 1012.0
20260510000046 53 100 0.0 0.9 0.00 0.50 0.50 99 1011.9
20260509235542 53 182 0.0 1.7 0.00 0.50 0.50 99 1011.9
20260509235039 53 83 0.9 1.7 0.00 0.50 0.50 99 1011.9
20260509234535 53 137 0.9 2.6 0.00 0.50 0.50 99 1011.9
20260509234033 53 129 0.0 2.6 0.00 0.50 0.50 99 1012.1
20260509233530 53 100 0.9 1.7 0.00 0.50 0.50 99 1012.0
20260509233027 53 303 0.0 1.7 0.00 0.50 0.50 99 1012.2
20260509232524 53 286 1.7 3.5 0.00 0.50 0.50 99 1012.1
20260509232020 52 256 1.7 2.6 0.00 0.50 0.50 99 1012.3
20260509231517 52 110 0.9 0.9 0.00 0.50 0.50 99 1012.4
20260509231015 52 70 0.0 1.7 0.00 0.50 0.50 99 1012.4
20260509230511 52 277 0.0 1.7 0.00 0.50 0.50 99 1012.5
20260509230008 52 73 0.0 1.7 0.00 0.50 0.50 99 1012.2
20260509225504 52 264 0.0 1.7 0.02 0.50 0.50 99 1012.7
20260509224959 52 250 0.0 1.7 0.02 0.50 0.50 99 1012.5
20260509224449 52 243 0.9 2.6 0.00 0.50 0.50 99 1012.7
20260509223946 52 305 0.0 1.7 0.02 0.50 0.50 99 1012.4
20260509223443 52 60 0.0 4.3 0.02 0.50 0.50 99 1012.7
20260509222941 52 318 0.9 1.7 0.05 0.49 0.49 99 1012.6
20260509222436 52 105 0.0 1.7 0.09 0.49 0.49 99 1012.6
20260509221932 52 335 2.6 4.3 0.09 0.48 0.48 99 1012.7
20260509221429 52 161 0.9 1.7 0.07 0.47 0.47 99 1012.7
20260509220924 52 92 0.0 1.7 0.05 0.47 0.47 99 1012.6
20260509220420 51 132 0.9 1.7 0.05 0.46 0.46 99 1012.9
20260509215917 51 117 0.9 1.7 0.05 0.46 0.46 99 1012.8
20260509215412 51 264 0.9 2.6 0.05 0.45 0.45 99 1013.1
20260509214910 51 155 0.0 0.9 0.02 0.45 0.45 99 1012.7
20260509214407 51 251 0.0 0.9 0.00 0.45 0.45 99 1012.9
20260509213904 51 106 0.0 0.0 0.02 0.45 0.45 99 1012.9
20260509213359 51 106 0.0 0.9 0.02 0.45 0.45 99 1013.0
20260509212857 51 55 0.9 2.6 0.00 0.44 0.44 99 1012.7
20260509212355 51 88 0.0 2.6 0.02 0.44 0.44 99 1012.6
20260509211851 51 95 0.0 2.6 0.02 0.44 0.44 99 1012.5
20260509211346 51 317 0.0 1.7 0.00 0.44 0.44 99 1012.6
20260509210843 52 242 0.0 1.7 0.02 0.44 0.44 99 1012.8
20260509210341 52 257 0.0 1.7 0.05 0.44 0.44 99 1012.6
20260509205840 51 224 0.9 1.7 0.07 0.43 0.43 99 1012.7
20260509205335 51 254 0.0 0.9 0.05 0.42 0.42 99 1012.7
20260509204832 51 6 0.0 1.7 0.07 0.42 0.42 99 1013.0
20260509204328 52 95 0.9 2.6 0.09 0.42 0.42 99 1012.6
20260509203824 52 240 0.0 1.7 0.12 0.41 0.41 99 1012.9
20260509203321 52 274 1.7 2.6 0.26 0.40 0.40 99 1013.0